CAPE
1 0 0 1 1 1 2 1 1 2 0 0 2 3 37 74 64 62 48 35 11 3
0 0 1 0 0 0 0 0 1 2 0 0 0 0 4 28 22 33 43 45 22 16
1 1 1 0 0 0 0 0 0 0 0 0 0 0 0 3 13 11 27 16 14 11
0 0 0 0 0 0 0 0 0 0 0 0 0 0 2 0 5 8 8 5 6 3
0 0 0 0 0 0 0 0 0 0 0 0 0 0 4 8 9 8 6 1 0 0
2 2 0 0 0 0 0 0 0 0 0 0 0 0 0 1 0 0 1 0 2 9
0 0 1 0 0 0 0 0 0 0 0 0 0 0 0 0 1 1 0 0 2 1
0 0 0 0 0 0 0 0 0 0 0 0 0 0 0 0 0 0 0 0 0 0
0 0 0 0 0 0 0 0 0 0 0 0 0 0 0 0 0 0 0 0 0 0
0 0 0 0 0 0 0 0 0 0 0 0 0 0 0 0 0 0 0 0 0 0
1 1 1 0 0 0 0 1 0 0 0 0 2 5 1 0 0 0 0 0 0 0
2 3 1 2 3 3 4 1 2 6 3 2 8 3 1 3 0 1 2 0 3 2
3 5 8 8 7 8 8 11 7 10 7 5 4 3 0 0 0 1 0 6 6 3
4 4 5 3 4 4 7 6 5 5 5 3 6 6 4 1 1 4 6 7 8 4
CIN
-4 -0 -0 -0 -0 -0 -0 -0 -0 -0 -0 -0 -1 -5 -40 -51 -61 -75 -74 -72 -105 -109
-0 -2 -2 -0 -0 -0 -0 -0 -0 -0 -0 -0 -0 -0 -13 -36 -41 -46 -55 -70 -87 -79
-0 -0 -0 -0 -0 -0 -0 -0 -0 -0 -0 -0 -0 -7 -0 -17 -40 -29 -38 -47 -54 -63
-0 -0 -0 -0 -0 -0 -0 -0 -0 -0 -0 -0 -0 -0 -22 -0 -56 -43 -40 -48 -44 -59
-1 -0 -0 -0 -0 -0 -0 -0 -0 -0 -0 -0 -0 -0 -62 -43 -46 -44 -60 -51 -71 -0
-9 -17 -0 -0 -0 -0 -0 -0 -0 -0 -0 -0 -0 -0 -0 -49 -38 -60 -46 -49 -67 -83
-0 -4 -10 -6 -14 -0 -0 -0 -0 -0 -0 -0 -0 -0 -0 -0 -34 -36 -6 -0 -65 -58
-0 -0 -0 -0 -0 -0 -0 -0 -0 -0 -0 -0 -0 -0 -0 -0 -0 -0 -0 -0 -0 -0
-0 -0 -0 -0 -0 -0 -0 -0 -0 -0 -0 -0 -0 -0 -0 -0 -0 -0 -0 -0 -0 -0
-0 -0 -0 -0 -0 -0 -0 -0 -0 -0 -0 -0 -0 -0 -0 -0 -0 -0 -0 -0 -0 -0
-0 -0 -0 -0 -0 -0 -0 -0 -0 -0 -0 -0 -0 -0 -0 -0 -0 -0 -0 -0 -0 -0
-0 -0 -0 -0 -0 -0 -0 -0 -0 -0 -0 -0 -0 -0 -0 -0 -0 -0 -0 -0 -0 -0
-0 -0 -0 -0 -0 -0 -0 -0 -0 -0 -0 -0 -0 -0 -0 -0 -0 -0 -0 -0 -0 -0
-0 -0 -0 -0 -0 -0 -0 -0 -0 -0 -0 -0 -0 -0 -0 -0 -0 -0 -0 -0 -0 -0
Wind_Speed
8 8 8 4 4 16 13 13 12 13 13 13 16 16 16 15 18 17 17 19 21 26
9 8 7 7 1 2 9 10 10 12 15 14 11 14 18 16 16 15 18 19 22 24
7 8 9 10 0 4 5 5 7 8 9 9 9 14 19 13 14 16 17 21 26 27
5 5 7 12 19 2 7 8 8 8 10 11 9 10 12 13 13 13 14 13 17 23
8 10 10 6 9 13 13 6 3 4 7 9 10 9 10 12 14 14 15 15 14 19
9 9 9 7 4 2 2 0 1 2 5 5 7 9 10 11 12 13 14 15 15 17
11 10 10 9 8 7 4 0 1 2 4 4 7 10 13 15 16 16 17 18 18 19
4 4 3 3 4 3 2 2 3 3 4 7 9 12 15 17 18 20 22 23 23 24
9 7 6 7 7 5 5 6 6 6 7 7 9 11 12 13 14 16 17 19 20 23
15 14 15 14 12 13 12 11 10 11 11 12 13 17 12 14 15 17 19 20 23 25
15 16 17 18 19 19 20 18 14 14 15 16 22 26 27 26 20 21 21 22 24 27
17 17 18 20 22 22 22 23 23 23 24 22 24 29 30 30 27 27 28 32 31 34
18 18 18 18 19 20 19 19 19 21 23 25 28 32 33 32 31 31 29 30 32 35
19 18 18 19 20 20 19 18 18 20 22 24 27 29 31 30 29 29 29 30 32 34
Wind_Direction
82 82 81 71 126 241 228 211 209 211 220 229 248 251 244 227 238 245 251 255 263 265
98 88 70 94 0 231 223 231 221 228 246 245 241 217 251 244 214 235 255 263 269 270
89 94 90 105 290 257 254 226 212 210 204 212 213 194 198 216 234 236 253 264 268 273
51 54 97 123 147 130 277 271 262 259 251 241 230 230 230 240 245 225 235 248 258 266
93 112 112 98 124 138 144 138 163 170 172 189 225 229 229 237 253 250 251 249 242 222
109 112 116 109 92 74 326 288 166 173 177 190 202 223 240 242 252 252 253 257 252 241
133 122 121 126 126 126 129 171 219 204 200 236 259 267 271 271 270 268 270 268 264 267
115 120 87 97 108 104 114 152 177 215 254 273 274 278 280 280 277 275 278 279 277 276
306 312 314 310 308 305 300 300 298 293 291 278 278 277 259 262 266 268 265 261 271 277
305 301 302 303 303 299 297 295 287 287 289 288 292 295 266 254 264 275 277 278 282 286
316 309 307 309 309 305 304 302 300 298 295 296 305 304 301 298 286 286 285 285 287 289
322 317 314 309 306 307 305 306 306 305 303 304 306 309 305 303 301 297 296 301 306 303
335 331 329 329 325 322 322 320 321 317 313 309 305 309 307 305 302 301 302 306 306 309
343 343 336 330 327 326 326 326 328 330 329 325 322 318 317 314 310 306 305 308 311 313